CUBESAT XI-V

Last updated on Mon Sep 15 2025 00:03:09 GMT+0000 (Coordinated Universal Time)

1 28895U 05043F 25256.96265511 .00001319 00000+0 22153-3 0 9998 2 28895 98.2634 42.6079 0014430 6.2429 353.8954 14.71334897 61112
UTC large
Height (km)
Speed (km/s)
/
Latitude / Longitude
Inclination (degrees)
Orbital Period (minutes)
Azimuth
Elevation
Range (km)
Doppler Factor

Next 0 passes for location: London (51.5072 / 0.1276)

Sorry there are no passes over London.